Regional Weather Roundup
Issued by NWS

Home | Current Version | Previous Version | Graphics & Text | Print | Product List | Glossary On
Versions: 1 2 3 4 5 6 7 8 9 10 11 12 13 14 15 16 17 18 19 20 21 22 23 24 25 26 27 28
000
ASUS45 KPSR 271810
RWRAZ

ARIZONA HOURLY REGIONAL WEATHER ROUNDUP
NATIONAL WEATHER SERVICE PHOENIX AZ
1100 AM MST MON MAR 27 2017

NOTE: FAIR INDICATES FEW OR NO CLOUDS BELOW 12,000 FEET WITH NO
SIGNIFICANT WEATHER AND/OR OBSTRUCTIONS TO VISIBILITY.

AZZ001>003-036-271900-
NORTHWEST ARIZONA

CITY           SKY/WX    TMP DP  RH WIND       PRES   REMARKS
BULLHEAD CITY  SUNNY     75  34  22 S7        29.84S
KINGMAN        SUNNY     65  18  16 SW31G37   29.88R
6HR MIN TEMP:  47; 6HR MAX TEMP:  65;

$$

AZZ004>008-015-016-018-271900-
NORTH CENTRAL ARIZONA

CITY           SKY/WX    TMP DP  RH WIND       PRES   REMARKS
GRAND CANYON   MOSUNNY   53  32  44 SW20G26   29.94F
6HR MIN TEMP:  28; 6HR MAX TEMP:  53;

WILLIAMS       MOSUNNY   52  30  43 S22G31    29.97F
PRESCOTT       PTSUNNY   57  31  37 SW10G20   29.96F
6HR MIN TEMP:  44; 6HR MAX TEMP:  59;

FLAGSTAFF      MOSUNNY   50  29  44 SW22G29   29.98F
6HR MIN TEMP:  29; 6HR MAX TEMP:  50;

PAYSON         CLOUDY    57  30  35 VRB5      30.02F
PAGE           PTSUNNY   61  31  32 NE7       29.84F
6HR MIN TEMP:  48; 6HR MAX TEMP:  61; 6HR PCP:  0.01;

$$

AZZ009>014-017-271900-
NORTHEAST ARIZONA

CITY           SKY/WX    TMP DP  RH WIND       PRES   REMARKS
WINSLOW        CLOUDY    63  27  25 SW14G22   29.92F
6HR MIN TEMP:  35; 6HR MAX TEMP:  63;

SAINT JOHNS    CLOUDY    60  23  24 W13G21    29.95F
6HR MIN TEMP:  32; 6HR MAX TEMP:  62;

WINDOW ROCK    CLOUDY    51  27  39 SW13      29.99F
6HR MIN TEMP:  25; 6HR MAX TEMP:  52;

SHOW LOW       CLOUDY    50  25  37 S18       30.00F
$$

AZZ023-271900-
GREATER PHOENIX AREA

CITY           SKY/WX    TMP DP  RH WIND       PRES   REMARKS
PHOENIX        PTSUNNY   74  34  23 VRB3      29.88S
6HR MIN TEMP:  59; 6HR MAX TEMP:  74;

BUCKEYE        PTSUNNY   73  37  27 SW7       29.89F
GLENDALE       PTSUNNY   72  36  26 CALM      29.90F
LUKE AFB       MOSUNNY   71  39  30 VRB3      29.87F
6HR MIN TEMP:  52; 6HR MAX TEMP:  71; 6HR PCP: TRACE;

DEER VALLEY    PTSUNNY   71  37  28 S7        29.88F
6HR MIN TEMP:  52; 6HR MAX TEMP:  71;

SCOTTSDALE     CLOUDY    72  33  24 CALM      29.91S
6HR MIN TEMP:  56; 6HR MAX TEMP:  72;

MESA-FALCON    MOSUNNY  N/A N/A N/A S8        29.87F
MESA-GATEWAY   PTSUNNY   73  36  25 SW7       29.90S
CHANDLER       PTSUNNY   75  36  23 CALM      29.89F
$$

AZZ027-028-271900-
SOUTHWEST MARICOPA COUNTY AND PINAL COUNTY

CITY           SKY/WX    TMP DP  RH WIND       PRES   REMARKS
CASA GRANDE    NOT AVBL
GILA BEND      MOSUNNY   76  32  20 W12       29.87F
6HR MIN TEMP:  55; 6HR MAX TEMP:  77;

$$

AZZ503-504-507>509-271900-
SOUTHEAST ARIZONA

CITY           SKY/WX    TMP DP  RH WIND       PRES   REMARKS
TUCSON         MOSUNNY   73  34  23 VRB3      29.93F
6HR MIN TEMP:  52; 6HR MAX TEMP:  74;

DAVIS-MONTHAN  MOSUNNY   72  33  23 CALM      29.92F
6HR MIN TEMP:  50; 6HR MAX TEMP:  72;

RYAN FIELD     SUNNY     73  32  21 CALM      29.92F
NOGALES        SUNNY     72  34  24 S9        29.98F
6HR MIN TEMP:  43; 6HR MAX TEMP:  72;

SIERRA VISTA   SUNNY     67  25  20 CALM      30.00F
6HR MIN TEMP:  47; 6HR MAX TEMP:  69;

DOUGLAS        SUNNY     70  17  13 SW9       29.99F
6HR MIN TEMP:  40; 6HR MAX TEMP:  70;

SAFFORD        SUNNY     71  25  17 SE7       29.92F
6HR MIN TEMP:  41; 6HR MAX TEMP:  71;

$$

AZZ020-021-025-026-031-271900-
SOUTHWEST ARIZONA

CITY           SKY/WX    TMP DP  RH WIND       PRES   REMARKS
YUMA           MOSUNNY   74  45  35 W13       29.90S
6HR MIN TEMP:  59; 6HR MAX TEMP:  75;

$$

CAZ031-033-041-043-047-048-061-271900-
SOUTHERN CALIFORNIA

CITY           SKY/WX    TMP DP  RH WIND       PRES   REMARKS
DOWNTOWN L.A.  SUNNY     69  50  50 CALM      30.02F
6HR MIN TEMP:  55; 6HR MAX TEMP:  69;

L.A. AIRPORT   MOSUNNY   65  51  60 VRB3      30.03F
6HR MIN TEMP:  53; 6HR MAX TEMP:  65;

SAN DIEGO      PTSUNNY   64  52  64 VRB5      30.07F
6HR MIN TEMP:  59; 6HR MAX TEMP:  64;

BURBANK        SUNNY     68  38  33 N18G28    30.01F
6HR MIN TEMP:  51; 6HR MAX TEMP:  68;

ONTARIO        PTSUNNY   59  49  69 CALM      30.01F
6HR MIN TEMP:  50; 6HR MAX TEMP:  61;

RIVERSIDE      PTSUNNY   62  49  62 W6        30.02F
6HR MIN TEMP:  52; 6HR MAX TEMP:  62;

PALM SPRINGS   SUNNY     75  40  28 VRB7      29.89R
6HR MIN TEMP:  58; 6HR MAX TEMP:  75;

EL CENTRO NAS  MOSUNNY   78  37  22 W13       29.91S
6HR MIN TEMP:  61; 6HR MAX TEMP:  78; 6HR PCP: TRACE;

IMPERIAL       SUNNY     76  45  33 NW7       29.89R
6HR MIN TEMP:  59; 6HR MAX TEMP:  76;

BLYTHE         SUNNY     74  42  31 S7        29.88S
6HR MIN TEMP:  59; 6HR MAX TEMP:  74;

NEEDLES        SUNNY     77  34  21 NW23G31   29.86S
6HR MIN TEMP:  65; 6HR MAX TEMP:  77;

$$

NVZ020-UTZ003-271900-
SOUTHERN NEVADA-UTAH

CITY           SKY/WX    TMP DP  RH WIND       PRES   REMARKS
LAS VEGAS      PTSUNNY   68  33  27 W24G30    29.85R
6HR MIN TEMP:  58; 6HR MAX TEMP:  68;

SALT LAKE CITY RAIN      43  41  93 N6        29.89R
6HR MIN TEMP:  43; 6HR MAX TEMP:  49; 6HR PCP:  0.15;

$$

NMZ009-TXZ055-271900-
NEW MEXICO-WEST TEXAS

CITY           SKY/WX    TMP DP  RH WIND       PRES   REMARKS
ALBUQUERQUE    MOSUNNY   60  23  24 S7        29.99F
6HR MIN TEMP:  40; 6HR MAX TEMP:  61;

EL PASO        SUNNY     73  19  13 SW8G20    29.97F
6HR MIN TEMP:  54; 6HR MAX TEMP:  73;

$$


........................KEY........................
SKY/WX - SKY CONDITION/WEATHER
TMP    - TEMPERATURE IN FAHRENHEIT
DP     - DEW POINT IN FAHRENHEIT
RH     - RELATIVE HUMIDITY IN PERCENT
WIND   - DIRECTION AND SPEED IN MILES PER HOUR (MPH)
VRB    - VARIABLE WIND DIRECTION
PRES   - MEAN SEA LEVEL PRESSURE IN INCHES OF MERCURY
         F - FALLING PRESSURE   R - RISING PRESSURE
         S - STEADY PRESSURE
VSB    - VISIBILITY IN MILES
HX     - HEAT INDEX IN FAHRENHEIT
WCI    - WIND CHILL INDEX IN FAHRENHEIT
TC     - TEMPERATURE IN CELSIUS WHICH IS ALSO KNOWN AS
         TEMPERATURE IN CENTIGRADE
AFB    - AIR FORCE BASE
         LUKE AFB IS LUKE AIR FORCE BASE
         DAVIS-MONTHAN IS DAVIS-MONTHAN AIR FORCE BASE
NAS    - NAVAL AIR STATION
         EL CENTRO NAS IS EL CENTRO NAVAL AIR STATION
N/A    - NOT AVAILABLE





USA.gov is the U.S. government's official web portal to all federal, state and local government web resources and services.